Regional Weather Roundup
Issued by NWS

Home | Current Version | Previous Version | Text Only | Print | Product List | Glossary Off
Versions: 1 2 3 4 5 6 7 8 9 10 11 12 13 14 15 16 17 18 19 20 21 22 23 24 25 26 27 28 29 30 31 32 33 34 35 36 37 38 39 40 41 42 43 44 45 46 47 48 49 50

000
ASUS43 KOAX 200110
RWRNE

WEATHER ROUNDUP FOR NEBRASKA
NATIONAL WEATHER SERVICE OMAHA NE
800 PM CDT THU OCT 19 2017

NOTES: SATELLITE DATA IS BEING USED TO AUGMENT CLOUD COVER ABOVE
       12000 FEET.
       "FAIR" INDICATES FEW OR NO CLOUDS BELOW 12,000 FEET WITH NO
       SIGNIFICANT WEATHER AND/OR OBSTRUCTIONS TO VISIBILITY.


NEZ001>004-019>022-054>056-200200-
NEBRASKA PANHANDLE

CITY           SKY/WX    TMP DP  RH WIND       PRES   REMARKS
SCOTTSBLUFF    CLOUDY    58  30  34 E6        29.83S
ALLIANCE       CLOUDY    56  38  50 S8        29.84R
CHADRON        CLOUDY    63  27  25 S8        29.77F
GORDON         FAIR      65  38  36 S6        29.82S
KIMBALL        CLOUDY    62  33  33 S8        29.90S
SIDNEY         CLOUDY    59  35  40 S12       29.89S
$$

NEZ057>060-069>072-079>082-200200-
SOUTHWEST NEBRASKA

CITY           SKY/WX    TMP DP  RH WIND       PRES   REMARKS
NORTH PLATTE   CLEAR     63  47  55 E12       29.89S
IMPERIAL       CLOUDY    63  42  46 SE12      29.89S
LEXINGTON      CLEAR     64  46  52 S8        29.92R
MCCOOK         CLOUDY    68  45  43 S12       29.90S
OGALLALA       CLOUDY    69  44  39 SE6       29.88R
$$

NEZ005>010-023>029-035>040-094-200200-
NORTH CENTRAL NEBRASKA

CITY           SKY/WX    TMP DP  RH WIND       PRES   REMARKS
VALENTINE      CLEAR     71  42  35 S12       29.83S
AINSWORTH      CLEAR     64  47  54 S10       29.87R
BROKEN BOW     CLEAR     64  50  60 SE7       29.90S
O`NEILL        CLEAR     65  48  54 S8        29.89R
ORD            CLEAR     69  49  48 SE10      29.89S
THEDFORD       CLEAR     65  46  50 SE10      29.89S
$$

NEZ041-046>049-061>064-073>077-083>087-200200-
SOUTH CENTRAL NEBRASKA

CITY           SKY/WX    TMP DP  RH WIND       PRES   REMARKS
GRAND ISLAND   CLEAR     69  51  52 S13       29.94S
AURORA         CLEAR     66  48  53 S7        29.95S
HASTINGS       CLEAR     69  48  47 SE10      29.95S
HEBRON         PTCLDY    69  47  46 S10       29.97R
HOLDREGE       CLEAR     66  46  48 SE9       29.93S
KEARNEY        CLOUDY    66  48  52 SE10      29.93S
YORK           CLEAR     68  50  52 S9        29.96R
$$

NEZ011>018-030>034-042>045-200200-
NORTHEAST NEBRASKA

CITY           SKY/WX    TMP DP  RH WIND       PRES   REMARKS
NORFOLK        CLEAR     66  51  58 SE10      29.90S
ALBION         CLEAR     63  48  58 S7        29.92S
BLAIR          CLEAR     69  55  59 S7        29.96F
COLUMBUS       CLEAR     68  53  58 S8        29.94S
FREMONT        CLEAR     68  54  60 SE7       29.96S
TEKAMAH        CLEAR     64  52  64 SE7       29.95S
WAYNE          CLEAR     63  49  59 S10       29.92S
$$

NEZ050>053-065>068-078-088>093-200200-
SOUTHEAST NEBRASKA

CITY           SKY/WX    TMP DP  RH WIND       PRES   REMARKS
LINCOLN        CLEAR     64  50  60 S8        29.97S
OMAHA EPPLEY   PTCLDY    70  53  54 S12       29.97S
BEATRICE       CLEAR     69  49  49 SE6       29.98S
FALLS CITY     CLEAR     65  50  58 SE5       30.01R
NEBRASKA CITY  CLEAR     64  52  65 S7        30.00S
PLATTSMOUTH    CLEAR     70  52  52 S10G16    29.99S
$$

NEZ044-045-051>053-067-200200-
OMAHA AREA

CITY           SKY/WX    TMP DP  RH WIND       PRES   REMARKS
OMAHA EPPLEY   PTCLDY    70  53  54 S12       29.97S
BLAIR          CLEAR     69  55  59 S7        29.96F
FREMONT        CLEAR     68  54  60 SE7       29.96S
MILLARD        CLEAR     70  54  56 SE3       29.97S
OFFUTT AFB     CLEAR     68  52  56 SE9       29.97S
PLATTSMOUTH    CLEAR     70  52  52 S10G16    29.99S
WAHOO          FAIR      63  51  65 S6        29.96S
$$



USA.gov is the U.S. government's official web portal to all federal, state and local government web resources and services.